Cherokee Observed Data For Previous 48 Hours

Caption
Day and Hour Reservoir Elevation (behind dam)* Tailwater Elevation (below dam)* Average Hourly Discharge*
1/16/2020 2 AM EST 1,044.17 927.10 11,465
1/16/2020 3 AM EST 1,044.13 927.12 11,451
1/16/2020 4 AM EST 1,044.14 927.12 11,435
1/16/2020 5 AM EST 1,044.12 927.09 11,432
1/16/2020 6 AM EST 1,044.11 927.11 11,462
1/16/2020 7 AM EST 1,044.07 927.10 11,438
1/16/2020 8 AM EST 1,044.06 927.12 11,411
1/16/2020 9 AM EST 1,044.04 927.11 11,379
1/16/2020 10 AM EST 1,044.04 927.10 11,370
1/16/2020 11 AM EST 1,044.02 927.12 11,409
1/16/2020 12 PM EST 1,044.01 927.13 11,498
1/16/2020 1 PM EST 1,043.99 927.14 11,526
1/16/2020 2 PM EST 1,043.97 927.14 11,528
1/16/2020 3 PM EST 1,043.97 927.00 11,463
1/16/2020 4 PM EST 1,043.95 926.97 10,895
1/16/2020 5 PM EST 1,043.92 926.90 10,859
1/16/2020 6 PM EST 1,043.91 926.94 10,848
1/16/2020 7 PM EST 1,043.88 926.93 10,794
1/16/2020 8 PM EST 1,043.86 926.94 10,786
1/16/2020 9 PM EST 1,043.85 926.95 10,860
1/16/2020 10 PM EST 1,043.84 926.93 10,857
1/16/2020 11 PM EST 1,043.82 926.94 10,886
1/17/2020 12 AM EST 1,043.82 926.94 10,938
1/17/2020 1 AM EST 1,043.83 926.90 10,878
1/17/2020 2 AM EST 1,043.81 926.91 10,849
1/17/2020 3 AM EST 1,043.81 926.91 10,853
1/17/2020 4 AM EST 1,043.81 926.90 10,832
1/17/2020 5 AM EST 1,043.81 926.92 10,800
1/17/2020 6 AM EST 1,043.79 926.91 10,813
1/17/2020 7 AM EST 1,043.79 926.93 10,823
1/17/2020 8 AM EST 1,043.79 926.94 10,845
1/17/2020 9 AM EST 1,043.80 926.93 10,842
1/17/2020 10 AM EST 1,043.79 926.92 10,865
1/17/2020 11 AM EST 1,043.78 926.92 10,888
1/17/2020 12 PM EST 1,043.77 926.94 10,863
1/17/2020 1 PM EST 1,043.76 926.92 10,895
1/17/2020 2 PM EST 1,043.74 926.93 10,900
1/17/2020 3 PM EST 1,043.73 925.99 10,902
1/17/2020 4 PM EST 1,043.72 925.85 10,868
1/17/2020 5 PM EST 1,043.72 925.83 9,313
1/17/2020 6 PM EST 1,043.71 925.81 7,759
1/17/2020 7 PM EST 1,043.73 925.82 7,714
1/17/2020 8 PM EST 1,043.72 925.81 7,720
1/17/2020 9 PM EST 1,043.73 925.82 7,698
1/17/2020 10 PM EST 1,043.72 925.81 7,724
1/17/2020 11 PM EST 1,043.73 925.82 7,734
1/18/2020 12 AM EST 1,043.73 925.82 7,724
1/18/2020 1 AM EST 1,043.74 925.84 7,713
1/18/2020 2 AM EST 1,043.74 925.84 7,703
1/18/2020 3 AM EST 1,043.75 925.83 7,699
1/18/2020 4 AM EST 1,043.75 925.84 7,682
1/18/2020 5 AM EST 1,043.75 925.81 7,711
1/18/2020 6 AM EST 1,043.75 925.83 7,701
1/18/2020 7 AM EST 1,043.75 925.82 7,692
1/18/2020 8 AM EST 1,043.75 925.83 7,697
1/18/2020 9 AM EST 1,043.78 925.82 7,691
1/18/2020 10 AM EST 1,043.78 925.83 7,719
1/18/2020 11 AM EST 1,043.78 925.83 7,711
1/18/2020 12 PM EST 1,043.79 925.83 7,704
1/18/2020 1 PM EST 1,043.79 925.83 7,688
1/18/2020 2 PM EST 1,043.79 925.82 7,701
1/18/2020 3 PM EST 1,043.81 925.82 7,695
1/18/2020 4 PM EST 1,043.81 925.83 7,691
1/18/2020 5 PM EST 1,043.80 925.83 7,688
1/18/2020 6 PM EST 1,043.81 925.84 7,689
1/18/2020 7 PM EST 1,043.79 925.84 7,665

Elevations are in feet above sea level. Discharges are in cubic feet per second and are reported at the end of the hour.